Flag for U.S.A. Weather past 2 weeks in New Salem, North Dakota, U.S.A.

Now
69 °F

Clear.


Feels Like: 69 °F
Forecast: 65 / 98 °F
Wind: 5 mph from Northeast

Location: Bismarck Municipal Airport

Current Time: Sep 3, 2015 at 4:30:33 AM

Latest Report: Sep 3, 2015 at 3:52 AM


Visibility: 7 mi

Pressure: 29.65 "Hg (27.45 "Hg at 664m altitude)

Humidity: 96%

Dew point: 68 °F

Location of New SalemLocation

Historic Weather in New Salem — Graph

°F

New Salem temperature yesterday

Maximum temperature yesterday: 93 °F (at 4:52 PM)
Minimum temperature yesterday: 61 °F (at 6:52 AM)
Average temperature yesterday: 75 °F

Past Weeks' High & Low Weather Summary

 TemperatureHumidityPressure
High98 °F (Aug 30, 5:52 PM)100% (Aug 29, 3:52 AM)30.22 "Hg (Aug 29, 3:52 AM)
Low43 °F (Aug 24, 6:52 AM)23% (Aug 21, 4:52 PM)29.47 "Hg (Aug 22, 3:52 AM)
Average68 °F67%29.87 "Hg
* Reported Aug 19 2:52 AM — Sep 3 2:52 AM, New Salem, Weather by CustomWeather, © 2015

Note: Actual official high and low records may vary slightly from our data, if they occured in-between our weather recording intervals... More about our weather records

Advertising

New Salem weather history for previous 24 hours

 ConditionsComfort  
Time TempWeatherWind HumidityBarometerVisibility
2:52 AM
Thu, Sep 3
70 °FClear.7 mph97%29.66 "Hg8 mi
1:52 AM71 °FClear.7 mph93%29.68 "Hg10 mi
12:52 AM75 °FClear.8 mph85%29.69 "Hg10 mi
11:52 PM
Wed, Sep 2
72 °FClear.7 mph91%29.71 "Hg10 mi
10:52 PM73 °FClear.6 mph84%29.72 "Hg10 mi
9:52 PM74 °FClear.5 mph71%29.71 "Hg10 mi
8:52 PM73 °FSunny.9 mph69%29.71 "Hg10 mi
7:52 PM81 °FSunny.7 mph56%29.69 "Hg10 mi
6:52 PM90 °FSunny.10 mph41%29.68 "Hg10 mi
5:52 PM92 °FSunny.10 mph41%29.68 "Hg10 mi
4:52 PM93 °FSunny.16 mph32%29.69 "Hg10 mi
3:52 PM91 °FSunny.12 mph45%29.70 "Hg10 mi
2:52 PM88 °FSunny.8 mph52%29.72 "Hg10 mi
1:52 PM85 °FSunny.8 mph59%29.73 "Hg10 mi
12:52 PM82 °FSunny.5 mph65%29.74 "Hg10 mi
11:52 AM76 °FSunny.8 mph77%29.76 "Hg9 mi
10:52 AM71 °FFog.8 mph87%29.77 "Hg6 mi
9:52 AM67 °FFog.6 mph93%29.79 "Hg1 mi
8:52 AM62 °FFog.5 mph100%29.79 "Hg0 mi
7:52 AM63 °FFog.6 mph97%29.78 "Hg4 mi
6:52 AM61 °FFog.3 mph97%29.77 "Hg5 mi
5:52 AM62 °FFog.5 mph96%29.77 "Hg6 mi
4:52 AM63 °FClear.7 mph97%29.76 "Hg8 mi
Weather by CustomWeather, © 2015

See weather overviewHow to use our weather pages